#timestamp,LO_Frequency,Hit,StdDev 
1517371215.2,286046999.9,N
1517371235.9,286047000.9,N
1517371255.7,286047000.5,N
1517371275.6,286047000.9,N
1517371295.4,286046998.7,N
1517371315.3,286046999.0,N
1517371335.1,286046999.4,N
1517371336.0,286046999.4,N
1517371355.8,286047000.5,N
1517371375.7,286046999.4,N
1517371395.5,286047000.5,N
1517371415.3,286046996.2,Y
1517371435.2,286046995.0,P
1517371455.0,286046995.0,N
1517371455.9,286046995.0,N
1517371475.8,286046995.1,N
1517371495.6,286046997.7,N
1517371515.4,286046993.3,Y
1517371535.3,286046999.2,P
1517371555.1,286047000.4,N
1517371575.9,286046999.9,N
1517371595.7,286047004.0,N
1517371615.5,286047001.7,N
1517371635.4,286047003.1,N
1517371655.2,286047004.0,N
1517371675.0,286047004.1,N
1517371675.9,286047004.1,N
1517371695.8,286047003.4,N
1517371715.6,286047004.0,N
1517371735.5,286047003.8,N
1517371755.3,286047004.8,N
1517371775.1,286047003.2,N
1517371795.9,286047001.8,N
1517371815.7,286047002.2,N
1517371835.6,286047002.0,N
1517371855.4,286047002.8,N
1517371875.2,286046996.7,N
1517371895.1,286046998.1,N
1517371896.0,286046998.1,N
1517371915.8,286047001.1,N
1517371935.6,286046998.1,N
1517371955.5,286046998.2,N
1517371975.3,286047002.7,N
1517371995.2,286047000.2,N
1517372015.9,286047000.6,N
1517372035.7,286047000.6,N
1517372055.6,286046998.2,N
1517372075.4,286046998.7,N
1517372095.3,286046998.9,N
1517372115.1,286047001.2,N
1517372116.0,286047001.2,N
1517372135.8,286046999.6,N
1517372155.7,286046999.0,N
1517372175.5,286047000.3,N
1517372195.3,286047002.4,N
1517372215.2,286047000.7,N
1517372235.0,286046998.2,N
1517372235.9,286046998.2,N
1517372255.8,286047000.0,N
1517372275.6,286047001.8,N
1517372295.4,286047001.5,N
1517372315.3,286047003.7,N
1517372335.1,286047001.6,N
1517372355.9,286047000.4,N
1517372375.7,286046998.3,N
1517372395.5,286047002.8,N
1517372415.4,286046999.8,N
1517372435.2,286046999.9,N
1517372455.0,286047002.1,N
1517372455.9,286047002.1,N
1517372475.8,286046999.9,N
1517372495.6,286047000.4,N
1517372515.5,286047001.0,N
1517372535.3,286047001.1,N
1517372555.1,286046999.9,N
1517372575.9,286047002.7,N
1517372595.7,286047002.3,N
1517372615.6,286047004.4,Y
1517372635.4,286047002.8,P
1517372655.2,286047001.6,N
1517372675.1,286047000.6,N
1517372676.0,286047000.6,N
1517372695.8,286047001.0,N
1517372715.7,286047002.6,Y
1517372735.5,286047000.1,P
1517372755.3,286047000.3,N
1517372775.2,286047000.1,N
1517372795.0,286047001.5,Y
1517372795.9,286047001.5,P
1517372815.8,286047001.4,N
1517372835.6,286047001.8,P
1517372855.4,286046999.8,N
1517372875.3,286047000.7,N
1517372895.1,286046999.3,N
1517372915.8,286046998.3,N
1517372935.7,286046999.8,N
1517372955.5,286047003.3,Y
1517372975.4,286047002.8,P
1517372995.2,286047004.2,P
1517373015.0,286047000.2,N
1517373015.9,286047000.2,N
1517373035.8,286047000.1,N
1517373055.6,286046997.3,N
1517373075.5,286046995.4,N
1517373095.3,286047000.8,N
1517373115.1,286047000.4,N
1517373135.9,286047000.6,N
1517373155.7,286047001.0,N
1517373175.5,286047000.3,N
1517373195.4,286047000.6,N
1517373215.2,286046998.2,N
1517373235.1,286047001.0,N
1517373236.0,286047001.0,N
1517373255.8,286046999.9,N
1517373275.6,286047000.2,N
1517373295.5,286047000.5,N
1517373315.3,286046998.3,N
1517373335.2,286046999.3,N
1517373355.9,286046999.1,N
1517373375.7,286047000.6,N
1517373395.6,286046998.2,N
1517373415.4,286046997.0,N
1517373435.2,286046995.5,N
1517373455.1,286046995.8,N
1517373456.0,286046995.8,N
1517373475.8,286046998.0,N
1517373495.7,286046997.7,N
1517373515.5,286046997.0,N
1517373535.3,286047002.6,N
1517373555.2,286046999.0,N
1517373575.0,286046998.0,N
1517373575.9,286046998.0,N
1517373595.8,286046996.2,N
1517373615.6,286046996.4,N
1517373635.4,286046995.0,N
1517373655.3,286046995.6,N
1517373675.1,286046993.7,Y
1517373695.9,286046995.6,P
1517373715.7,286046997.3,N
1517373735.5,286046997.8,N
1517373755.4,286046998.6,N
1517373775.2,286046997.1,N
1517373795.0,286047000.7,N
1517373795.9,286047000.7,N
1517373815.8,286047000.9,N
1517373835.6,286047002.4,N
1517373855.5,286047000.9,N
1517373875.3,286047002.6,N
1517373895.1,286047002.8,N
1517373915.9,286047004.4,N
1517373935.7,286047001.7,N
1517373955.6,286047003.2,N
1517373975.4,286047004.1,N
1517373995.2,286047005.4,N
1517374015.1,286047004.2,N
1517374016.0,286047004.2,N
1517374035.8,286047001.3,N
1517374055.6,286047004.1,N
1517374075.5,286047003.2,N
1517374095.3,286046999.8,N
1517374115.2,286046999.8,N
1517374135.0,286047002.0,N
1517374135.9,286047002.0,N
1517374155.7,286047002.3,N
1517374175.6,286047001.0,N
1517374195.4,286046998.8,N
1517374215.3,286046999.9,N
1517374235.1,286047001.1,N
1517374236.0,286047001.1,N
1517374255.8,286047000.5,N
1517374275.7,286047001.0,N
1517374295.5,286046999.0,N
1517374315.4,286047000.3,N
1517374335.2,286047002.0,N
1517374355.0,286047000.2,N
1517374355.9,286047000.2,N
1517374375.8,286046998.9,N
1517374395.6,286046996.6,N
1517374415.4,286046998.1,N
1517374435.3,286046999.2,N
1517374455.1,286046999.2,N
1517374475.9,286046996.6,N
1517374495.7,286046999.3,N
1517374515.5,286047003.5,N
1517374535.4,286047001.3,N
1517374555.2,286047005.3,N
1517374575.1,286047002.9,N
1517374576.0,286047002.9,N
1517374595.8,286047003.9,N
1517374615.6,286047007.6,Y
1517374635.5,286047006.0,P
1517374655.3,286047003.8,N
1517374675.2,286047000.5,N
1517374695.9,286046999.9,N
1517374715.7,286047000.9,N
1517374735.6,286047002.1,N
1517374755.4,286047003.1,N
1517374775.2,286047001.4,N
1517374795.1,286047004.3,N
1517374796.0,286047004.3,N
